Tracking 30516 objects as of 20-May-2025
HD Live streaming from Space Station
objects crossing your sky now

THOR ABLESTAR DEB

Track THOR ABLESTAR DEB now!
10-day predictions


NORAD ID: 20174
Int'l Code: 1961-015MK
Perigee: 796.2 km
Apogee: 1,523.6 km
Inclination: 67.1 °
Period: 108.4 minutes
Semi major axis: 7530 km
RCS: 0.0128 m2 (small)
Launch date: June 29, 1961
Source: United States (US)
Launch site: AIR FORCE EASTERN TEST RANGE (AFETR)

Note: This is SATELLITE DEBRIS
Your satellite tracking list
Your tracking list is empty




NASA's NSSDC Master Catalog

Two Line Element Set (TLE):
1 20174U 61015MK  25139.18571890  .00000826  00000-0  10273-2 0  9997
2 20174  67.0622  62.2129 0482949  35.8291 327.4157 13.28405945629451
Source of the keplerian elements: AFSPC